Temp
9 9 9 10 10 10 10 10 10 10 10 10 10 10 11 11 11 12 13 10 11 9 9 9 9 9 9 9 9 10 8 8 10 11 13 13 12 12 13 14 14 14 15 14 14
9 9 9 9 9 9 9 9 10 10 10 10 10 10 10 11 11 12 11 12 11 11 11 9 8 8 8 9 8 8 9 9 11 11 12 13 11 11 12 13 14 14 13 13 12
9 9 9 9 9 9 9 9 9 9 9 10 10 10 10 11 12 11 12 11 11 11 10 9 8 8 7 8 8 9 9 10 11 11 11 12 11 11 11 12 13 13 13 13 12
8 8 8 8 8 9 9 9 9 9 9 9 9 9 10 10 9 11 10 10 10 10 10 9 8 7 8 8 9 8 9 9 10 10 11 11 10 10 11 11 12 13 13 12 12
7 7 7 7 7 8 8 8 8 9 9 8 8 9 10 10 13 8 9 9 9 9 9 9 8 8 8 8 9 7 9 9 9 9 10 10 10 9 10 11 11 12 13 13 13
7 7 7 7 7 7 7 7 7 7 7 8 8 8 8 11 9 10 9 9 9 9 9 8 8 7 6 8 8 9 9 9 8 9 9 9 10 10 10 10 11 11 11 12 12
6 6 6 7 6 6 6 6 6 6 6 7 7 7 9 12 8 8 9 9 8 8 8 8 7 6 6 7 7 8 7 7 8 8 8 9 9 10 10 10 10 11 11 11 12
7 6 6 6 6 6 6 6 6 5 5 6 6 6 9 9 9 8 7 8 8 8 8 6 6 5 5 6 6 6 6 6 8 8 9 9 9 10 10 10 10 11 11 11 10
6 6 6 6 6 6 6 5 5 5 5 5 5 5 8 8 9 8 8 8 7 6 7 5 5 5 5 5 6 6 6 7 7 8 8 9 9 10 10 10 10 10 10 10 10
6 6 6 6 5 5 5 5 5 5 5 4 4 4 6 6 7 8 7 7 6 5 5 4 4 5 5 4 4 5 6 7 7 8 8 9 9 9 10 10 10 10 10 10 10
6 6 6 6 5 5 5 5 3 3 5 5 4 4 4 5 5 6 6 5 3 4 4 4 3 4 5 5 5 6 6 6 7 8 9 9 9 9 10 10 10 10 10 10 10
6 6 6 6 5 4 3 2 -1 -1 4 4 4 4 5 5 6 5 4 4 3 3 2 3 4 5 4 5 5 5 5 6 7 8 8 9 9 10 10 10 11 11 11 11 10
6 6 6 5 4 2 1 -1 -2 -3 -2 4 3 5 5 4 7 6 4 3 3 2 2 3 4 4 3 4 5 5 5 6 6 8 8 8 9 10 10 11 11 11 11 11 10
4 4 4 3 2 1 -1 -3 -3 -4 -5 1 4 4 4 4 4 5 4 2 2 3 2 2 4 4 4 4 5 5 5 6 7 7 7 9 8 10 10 10 11 10 11 10 10
3 2 1 -0 0 -0 -3 -3 -3 -4 -5 2 3 1 2 2 2 3 3 1 2 2 2 3 3 3 4 5 5 5 6 6 7 7 7 8 9 10 10 10 10 10 10 10 10
1 -0 -1 -1 -1 -2 -2 -3 -5 -4 -4 1 2 1 1 0 1 1 1 2 2 2 2 3 3 4 4 4 5 5 5 6 7 7 6 8 8 9 10 10 10 10 10 10 10
0 -1 -2 -3 -2 -2 -2 -4 -5 -5 -2 -1 0 -1 -2 -1 -0 0 -0 -1 -0 0 2 3 3 4 4 4 5 5 5 5 4 5 5 8 8 9 9 10 10 10 9 9 9
-1 -2 -2 -3 -3 -3 -4 -5 -6 -3 -3 -1 -2 -2 -2 -1 -1 -2 -2 -1 -2 -0 2 2 3 3 4 4 5 5 5 5 3 2 5 8 7 9 9 9 9 9 8 8 9
-2 -2 -3 -5 -5 -4 -6 -6 -4 -4 -3 -3 -3 -3 -2 -1 -1 -1 -1 -1 -1 -0 -1 2 3 4 4 4 4 5 6 6 7 6 6 7 8 8 9 9 9 9 9 8 8
-3 -3 -4 -5 -4 -5 -5 -5 -4 -4 -4 -4 -4 -4 -3 -2 -3 -1 -1 -1 -1 -0 -0 1 2 3 5 4 5 5 6 7 7 2 3 4 7 8 8 7 8 8 8 8 8
-4 -3 -6 -5 -5 -5 -5 -5 -5 -5 -5 -4 -4 -4 -4 -3 -3 -3 -1 -1 -0 -1 -0 -0 1 3 4 4 4 6 6 7 7 8 -0 2 4 6 7 7 6 7 7 8 7
-5 -5 -6 -6 -6 -6 -5 -5 -5 -4 -4 -4 -3 -3 -3 -3 -3 -3 -1 -1 0 -1 0 -1 0 1 4 3 3 4 6 6 7 4 7 7 3 5 6 7 4 6 6 6 7
-6 -5 -6 -6 -8 -6 -5 -5 -5 -5 -4 -4 -3 -3 -4 -3 -3 -2 -1 -0 -0 -0 -1 -1 0 1 0 1 3 3 4 5 8 7 6 4 3 5 4 5 5 4 3 4 5
-7 -7 -6 -7 -7 -7 -6 -4 -5 -4 -4 -4 -4 -4 -4 -3 -3 -2 -1 -1 -1 -1 -2 -1 0 2 3 3 2 3 5 7 8 7 5 6 5 5 4 4 4 3 2 3 3
-8 -9 -9 -8 -7 -7 -7 -6 -5 -5 -4 -3 -3 -4 -4 -4 -3 -2 -1 -1 -1 -1 -1 -1 0 2 3 4 4 3 6 7 7 7 7 6 6 6 6 4 4 4 2 1 1
-9 -10 -9 -8 -8 -8 -7 -6 -6 -5 -5 -4 -3 -4 -4 -4 -4 -3 -2 -1 -1 -1 -0 -1 1 2 3 4 3 3 5 6 6 6 7 6 5 5 5 4 4 4 4 2 3
-10 -9 -10 -8 -8 -8 -7 -7 -6 -5 -5 -5 -4 -4 -4 -4 -4 -3 -3 -2 -1 -1 -1 -0 1 1 0 2 3 3 4 5 5 5 6 5 5 5 4 5 4 4 2 2 1
Height
3140 3138 3135 3133 3131 3129 3126 3125 3123 3121 3120 3117 3115 3113 3111 3110 3109 3107 3109 3109 3109 3108 3111 3115 3119 3120 3119 3122 3124 3125 3119 3113 3119 3124 3128 3136 3137 3140 3141 3142 3141 3141 3143 3146 3144
3138 3135 3132 3130 3128 3125 3122 3120 3118 3115 3113 3110 3108 3106 3105 3103 3103 3105 3105 3103 3104 3102 3103 3109 3113 3113 3113 3118 3116 3115 3109 3108 3116 3122 3127 3132 3134 3137 3138 3138 3139 3138 3140 3141 3143
3135 3132 3130 3128 3125 3122 3119 3115 3113 3110 3108 3104 3101 3099 3097 3095 3096 3097 3099 3097 3097 3097 3100 3103 3106 3105 3107 3111 3109 3108 3098 3108 3112 3119 3124 3127 3130 3134 3135 3136 3138 3139 3138 3138 3141
3130 3127 3124 3122 3119 3117 3114 3111 3108 3106 3102 3099 3097 3094 3091 3088 3091 3091 3091 3091 3091 3091 3093 3094 3097 3096 3099 3099 3105 3099 3100 3105 3111 3116 3119 3120 3125 3128 3130 3132 3132 3133 3134 3137 3136
3125 3122 3119 3116 3113 3110 3107 3105 3102 3099 3095 3092 3089 3086 3084 3080 3084 3088 3080 3084 3084 3086 3088 3089 3089 3092 3092 3096 3100 3093 3100 3102 3106 3110 3113 3118 3117 3123 3123 3126 3128 3127 3129 3131 3134
3119 3115 3113 3109 3106 3102 3099 3097 3095 3091 3088 3085 3081 3077 3074 3072 3081 3079 3075 3076 3080 3079 3081 3082 3084 3088 3086 3092 3091 3094 3096 3097 3101 3104 3108 3113 3112 3116 3117 3121 3122 3123 3124 3126 3129
3114 3110 3106 3102 3098 3093 3091 3089 3086 3081 3078 3076 3073 3066 3059 3066 3074 3068 3069 3072 3072 3074 3074 3078 3081 3081 3084 3085 3089 3090 3090 3092 3094 3099 3103 3110 3103 3101 3112 3116 3116 3118 3119 3121 3125
3109 3105 3101 3097 3092 3088 3083 3082 3079 3072 3067 3067 3062 3056 3035 3062 3058 3061 3062 3059 3065 3067 3068 3071 3075 3075 3075 3082 3082 3084 3086 3083 3088 3093 3098 3104 3082 3099 3107 3109 3109 3111 3113 3115 3117
3103 3099 3094 3089 3084 3078 3074 3073 3072 3063 3058 3055 3052 3047 3031 3044 3045 3045 3045 3047 3056 3059 3062 3064 3066 3065 3072 3072 3076 3074 3072 3077 3082 3087 3093 3093 3086 3096 3102 3103 3103 3105 3108 3110 3112
3097 3092 3087 3082 3077 3068 3064 3062 3059 3053 3048 3043 3040 3038 3037 3038 3039 3039 3038 3040 3043 3051 3055 3055 3055 3055 3056 3060 3049 3064 3067 3070 3075 3082 3086 3086 3083 3091 3095 3096 3098 3099 3103 3106 3107
3090 3084 3079 3074 3069 3060 3054 3052 3050 3039 3031 3029 3029 3021 3025 3032 3030 3031 3031 3033 3036 3040 3041 3046 3045 3031 3040 3048 3057 3062 3065 3067 3072 3077 3081 3080 3081 3085 3088 3090 3091 3093 3096 3101 3103
3082 3075 3068 3063 3060 3053 3047 3045 3038 3031 3008 3009 3011 3006 3012 3026 3009 3017 3026 3025 3027 3023 3033 3040 3021 3036 3044 3050 3053 3058 3059 3063 3069 3071 3076 3076 3076 3079 3081 3082 3085 3088 3089 3093 3098
3075 3067 3060 3050 3050 3044 3041 3037 3032 3023 3006 2991 2999 2996 2999 2998 2993 2996 3012 3011 3014 3019 3017 3019 3024 3034 3039 3043 3047 3049 3053 3059 3065 3065 3071 3072 3070 3072 3075 3075 3080 3084 3087 3090 3093
3066 3058 3049 3041 3039 3034 3033 3023 3020 3018 3009 2991 2996 2995 2991 2990 2989 2988 2991 2999 3004 3003 3016 3019 3024 3027 3031 3034 3042 3043 3051 3056 3060 3064 3065 3068 3065 3066 3068 3071 3076 3079 3081 3085 3087
3056 3049 3039 3029 3020 3026 3020 3018 3016 3019 3017 3001 2995 2994 2989 2992 2989 2984 2985 2988 2991 3000 3012 3002 3014 3020 3024 3026 3036 3035 3049 3052 3055 3059 3063 3059 3063 3060 3063 3067 3072 3077 3076 3081 3083
3045 3039 3030 3023 3020 3015 3011 3012 3013 3018 3004 2993 2990 2986 2987 2986 2985 2982 2982 2987 2994 2999 3003 3003 3012 3015 3015 3025 3031 3039 3045 3050 3052 3054 3053 3052 3058 3057 3058 3063 3067 3073 3075 3078 3080
3035 3030 3023 3013 3007 3004 3001 3005 3010 3003 2994 2986 2984 2981 2981 2983 2980 2978 2980 2981 2986 2990 2993 3000 3003 3010 3015 3022 3025 3033 3039 3044 3047 3044 3042 3048 3051 3052 3055 3060 3065 3067 3069 3074 3077
3028 3022 3015 3006 3001 2996 2994 2999 2999 2992 2989 2984 2981 2977 2980 2980 2977 2977 2976 2974 2977 2976 2985 2989 2995 2995 3002 3009 3015 3022 3030 3032 3039 3040 3040 3044 3040 3046 3053 3058 3062 3063 3066 3069 3076
3020 3017 3006 3000 2995 2993 2993 2994 2991 2988 2988 2986 2980 2974 2973 2975 2976 2974 2973 2970 2970 2973 2976 2980 2981 2992 2998 3005 3013 3015 3020 3028 3033 3034 3034 3037 3040 3046 3047 3052 3055 3057 3062 3064 3069
3013 3009 3002 2998 2995 2989 2991 2986 2986 2985 2984 2981 2977 2973 2969 2968 2971 2972 2971 2969 2969 2967 2970 2972 2980 2985 2989 3001 3005 3010 3019 3022 3022 3031 3036 3034 3037 3038 3041 3044 3049 3052 3056 3060 3063
3010 3005 3001 2995 2994 2990 2985 2984 2982 2981 2979 2975 2968 2967 2964 2963 2964 2965 2962 2962 2962 2959 2963 2966 2975 2978 2982 2989 2994 3004 3008 3013 3020 3020 3028 3036 3036 3038 3040 3041 3045 3049 3053 3053 3059
3007 3003 2996 2992 2992 2988 2982 2977 2977 2976 2974 2970 2965 2961 2960 2959 2955 2959 2957 2959 2957 2960 2958 2961 2968 2975 2972 2984 2992 2993 2999 3008 3007 3015 3019 3025 3034 3036 3039 3040 3045 3045 3051 3054 3058
3004 3000 2997 2991 2988 2983 2980 2976 2974 2972 2969 2963 2961 2959 2958 2956 2954 2952 2954 2955 2957 2956 2958 2957 2963 2970 2977 2984 2986 2985 2993 2999 3003 3010 3014 3023 3031 3033 3038 3039 3044 3046 3049 3054 3057
3002 2996 2991 2990 2991 2986 2980 2974 2974 2971 2966 2962 2959 2958 2955 2952 2949 2949 2951 2952 2951 2953 2956 2952 2953 2958 2961 2967 2979 2988 2993 2992 2997 3004 3011 3017 3023 3029 3036 3040 3042 3046 3048 3054 3054
3002 2999 2994 2987 2985 2984 2982 2977 2971 2966 2964 2960 2956 2954 2953 2949 2947 2946 2949 2948 2948 2950 2949 2948 2948 2956 2961 2968 2975 2983 2984 2986 2993 3001 3006 3015 3020 3025 3028 3033 3038 3043 3043 3046 3050
3002 2997 2993 2987 2985 2982 2979 2975 2970 2961 2960 2957 2950 2951 2949 2947 2946 2943 2943 2944 2945 2945 2942 2943 2946 2953 2959 2965 2971 2982 2982 2986 2992 2996 3003 3011 3016 3022 3027 3034 3037 3040 3045 3049 3050
2998 2996 2991 2985 2982 2980 2977 2974 2968 2964 2959 2956 2951 2946 2943 2940 2938 2939 2941 2941 2940 2939 2938 2938 2942 2951 2959 2965 2974 2981 2984 2985 2989 2996 3003 3007 3013 3018 3025 3030 3033 3037 3042 3042 3047
Wind_Speed
15 16 15 15 15 15 17 17 17 18 19 20 21 22 22 23 23 25 17 18 21 27 28 26 23 22 27 28 28 29 37 42 40 34 29 22 15 2 10 18 21 26 28 16 11
15 14 14 16 16 18 19 20 21 22 23 23 23 24 25 27 26 22 21 21 20 26 28 27 24 25 28 27 33 36 45 46 38 33 26 22 16 10 14 15 19 16 17 16 15
18 18 18 18 18 20 21 22 23 24 26 26 27 29 28 29 28 26 23 21 21 25 24 27 28 31 30 28 37 39 49 41 38 31 24 25 19 9 12 16 16 18 17 18 19
22 22 22 22 22 23 23 24 26 27 28 30 31 32 32 33 22 10 17 17 14 14 21 29 34 38 37 37 33 43 44 38 34 29 27 32 23 21 15 16 22 27 26 22 20
24 25 26 26 26 26 27 27 28 29 31 32 34 36 36 39 26 27 33 24 23 22 18 26 35 36 39 37 33 43 37 36 34 31 29 30 31 24 23 21 18 26 33 30 32
28 29 29 29 30 30 31 31 31 33 34 35 37 40 41 42 25 26 32 30 24 27 24 25 28 34 35 32 35 34 34 34 30 24 24 26 31 26 22 24 27 27 29 32 29
30 31 31 32 32 34 34 32 32 35 37 37 38 43 50 35 28 34 33 31 28 26 27 25 22 31 34 31 29 30 27 23 26 23 24 23 35 38 25 22 28 27 36 35 33
35 36 35 35 37 38 38 35 33 37 40 38 41 45 60 34 37 35 36 37 30 27 25 24 23 31 33 30 20 24 28 35 29 28 26 26 50 38 30 25 25 25 25 25 21
39 40 40 40 41 41 42 40 37 41 41 41 42 46 57 35 30 32 34 40 32 29 23 22 28 35 32 35 32 32 32 33 34 29 26 30 42 34 29 33 25 23 21 22 21
42 43 44 44 44 47 46 43 40 44 46 44 44 45 32 25 25 23 21 17 32 29 26 27 30 37 41 42 40 32 36 33 31 32 29 34 35 31 27 27 34 28 29 27 20
45 45 45 44 43 45 50 46 41 44 46 46 43 50 40 29 27 19 19 18 29 32 32 34 38 52 50 49 40 34 32 29 30 31 27 33 35 33 31 33 31 27 30 25 22
45 47 49 48 45 43 42 37 30 34 55 50 48 52 48 29 46 43 25 27 38 43 34 38 58 47 40 42 38 37 30 32 29 26 25 29 33 30 30 31 27 20 19 27 24
49 50 52 54 48 44 36 26 21 27 45 62 49 46 18 22 37 43 39 37 39 47 48 49 35 45 38 39 40 39 37 31 31 29 29 28 26 34 27 33 29 26 27 21 24
48 50 52 54 50 40 26 25 24 22 23 49 27 9 12 10 13 10 39 42 44 49 48 46 49 15 44 41 36 37 36 33 32 32 23 18 14 29 22 26 21 24 22 28 29
48 46 48 47 52 37 26 25 22 18 6 14 5 14 16 9 14 5 10 44 48 39 41 50 41 45 33 49 32 40 33 31 28 33 30 31 9 21 21 20 23 14 14 27 25
48 45 45 43 39 29 28 18 14 8 9 13 12 14 12 14 14 21 9 38 42 32 36 47 30 34 41 25 42 30 26 27 29 32 20 34 20 15 19 22 20 17 15 20 26
45 43 38 33 34 27 24 13 12 11 4 12 13 30 28 24 21 12 12 15 29 31 38 40 41 33 26 44 31 32 33 13 9 12 9 24 17 17 21 19 22 14 22 29 24
43 41 31 26 21 23 20 13 11 9 20 23 29 35 30 19 9 8 12 21 23 29 24 32 26 43 39 39 43 40 33 15 7 4 4 19 10 11 20 24 16 15 21 31 37
43 38 22 10 12 10 9 10 11 14 12 20 29 26 9 10 14 14 14 18 18 22 13 30 38 31 43 36 41 38 39 35 19 9 7 6 11 23 28 27 27 30 24 33 38
45 37 20 12 16 20 14 17 18 17 24 24 29 18 26 26 22 14 10 10 15 20 30 20 24 36 38 32 36 39 28 32 21 7 4 3 10 10 13 24 28 30 30 37 41
41 33 23 19 18 19 14 17 20 21 20 22 19 24 27 28 24 20 12 9 16 14 17 26 19 7 34 29 32 26 44 28 32 20 6 5 4 8 11 25 30 32 37 42 43
40 33 16 20 10 20 15 18 13 17 15 27 22 16 18 18 16 16 19 16 15 15 15 18 21 10 25 19 26 29 20 40 24 7 12 17 5 14 12 22 30 37 37 34 29
37 33 17 24 31 32 26 24 16 24 24 29 12 7 17 20 13 8 13 12 14 17 11 18 19 17 14 17 24 26 37 29 31 22 14 10 6 18 19 19 25 32 31 27 26
33 27 28 18 28 28 30 23 22 23 22 22 14 13 17 16 9 10 8 9 7 11 14 10 18 16 17 17 32 22 23 33 38 19 17 14 16 17 15 26 27 29 33 29 28
26 19 24 30 26 24 25 22 28 23 26 13 11 13 18 19 16 13 15 18 15 15 14 16 15 17 23 17 29 15 18 19 27 32 26 19 19 19 17 30 32 36 21 33 26
18 22 23 25 21 27 27 27 24 36 18 16 10 18 18 23 18 11 5 13 14 16 15 17 10 24 20 19 23 18 14 11 23 28 23 26 21 21 19 22 27 26 26 27 24
21 19 20 23 26 30 28 25 31 23 23 25 22 20 19 21 15 13 12 15 12 10 14 10 24 23 9 24 30 15 9 17 17 22 20 20 22 22 26 25 22 23 26 36 34
Wind_Direction
324 321 316 309 300 294 289 282 274 269 269 268 271 270 269 270 269 270 279 269 251 244 241 239 239 235 231 226 230 227 228 235 235 235 243 209 221 355 291 264 235 209 234 245 229
317 310 305 303 298 291 287 283 279 276 274 273 272 271 272 272 270 270 269 266 257 250 253 240 232 234 233 230 225 221 230 235 240 239 238 208 234 288 293 247 232 211 190 208 215
315 310 306 301 296 294 291 286 283 281 279 276 275 275 274 274 276 278 271 265 254 252 245 234 225 232 231 226 223 230 238 243 244 241 232 223 234 253 274 235 227 204 193 198 210
316 312 306 301 297 294 290 288 288 286 283 281 280 278 275 274 275 275 278 269 257 245 236 231 223 226 229 227 228 234 239 243 249 245 228 224 243 244 245 238 220 216 221 223 218
314 309 306 303 299 294 291 288 286 283 282 280 279 277 273 269 270 279 275 267 261 256 250 242 229 230 232 233 232 233 241 244 246 242 232 227 236 255 249 233 226 223 228 236 233
319 315 311 306 300 295 292 291 289 285 281 277 278 276 271 266 280 266 262 267 264 256 249 240 234 232 237 237 234 242 246 243 238 234 231 243 248 249 246 265 249 235 230 237 235
319 316 313 308 304 300 297 294 290 286 281 278 277 274 269 267 269 266 265 262 260 255 247 244 231 226 231 234 239 246 242 242 234 228 243 254 258 244 245 259 267 253 237 243 249
319 316 313 309 306 303 299 297 295 289 285 284 279 277 273 276 263 261 263 259 253 252 247 227 220 226 230 228 214 222 244 248 228 222 223 234 250 248 241 250 256 263 256 246 237
319 316 314 311 307 303 300 299 297 289 288 284 280 276 278 288 271 257 249 250 249 243 239 213 217 219 215 219 224 224 240 239 245 225 241 239 253 258 256 248 251 236 250 247 247
319 317 315 313 311 307 303 303 299 291 287 284 278 276 282 279 253 251 246 239 233 231 212 205 211 214 209 210 217 222 229 237 244 229 242 241 247 248 248 256 244 240 250 243 245
321 318 315 312 310 306 305 306 300 295 284 276 271 268 262 266 271 240 233 222 217 221 215 201 205 210 206 207 219 223 236 242 245 234 234 237 248 248 244 252 257 240 243 225 237
320 318 315 312 310 304 305 308 297 295 288 281 279 278 283 285 262 242 234 220 212 215 210 208 217 212 211 207 219 229 236 239 239 229 246 251 251 253 241 250 245 241 211 215 224
320 316 312 308 308 306 306 298 274 271 277 284 293 298 298 251 254 249 220 221 217 214 211 209 219 216 218 216 223 230 230 233 233 227 249 257 277 251 254 252 228 227 227 214 216
314 312 309 305 305 306 311 279 276 262 294 290 306 326 319 296 291 317 216 211 218 225 211 220 216 219 213 219 218 227 228 234 230 249 260 254 259 226 213 212 207 210 230 210 211
313 311 308 307 304 315 291 282 278 262 299 291 308 31 19 343 311 304 216 203 211 214 204 218 223 216 222 219 216 230 232 226 231 247 256 259 249 210 208 209 202 196 202 210 216
313 315 312 309 306 305 296 281 245 208 243 254 231 309 325 355 316 305 304 207 212 218 220 227 220 224 216 222 221 218 225 241 242 246 242 248 233 217 216 224 217 239 211 226 228
321 323 324 311 311 294 281 239 217 223 224 264 291 317 326 317 326 313 232 201 217 214 222 223 226 220 222 222 220 218 228 232 242 221 228 237 231 225 228 216 228 238 224 209 228
328 336 329 311 301 283 271 210 220 258 245 274 300 304 313 316 323 351 312 306 268 218 232 215 220 218 219 221 219 221 222 209 201 171 183 213 215 223 242 231 233 229 227 228 225
331 340 329 297 302 289 247 215 235 261 296 288 301 314 319 279 309 304 298 286 284 240 220 207 229 223 223 221 220 224 223 228 223 227 170 202 247 250 250 246 243 233 222 214 212
333 343 330 283 292 220 247 238 254 273 298 294 288 275 287 300 308 293 274 255 286 230 230 226 225 222 214 220 225 226 227 207 217 147 157 183 209 218 227 215 221 216 210 204 209
335 344 337 300 271 288 270 249 289 290 288 308 296 284 291 303 287 284 264 279 302 308 215 223 206 214 221 223 221 209 215 219 219 208 148 158 203 191 208 201 193 202 205 207 205
337 341 331 349 333 2 310 318 307 314 325 311 303 305 289 300 285 273 250 245 292 302 299 205 212 214 219 223 226 225 215 209 197 161 183 202 154 173 198 214 191 190 197 199 213
336 335 337 350 8 357 351 341 347 337 326 316 311 324 304 311 295 260 250 254 256 272 275 199 204 190 166 210 200 218 214 236 211 192 176 161 171 184 189 196 203 189 180 183 189
338 336 328 334 353 348 344 336 339 337 330 328 316 305 327 327 268 246 237 253 272 251 243 227 210 202 212 211 191 192 220 210 202 188 163 184 168 173 187 217 208 182 166 174 179
342 329 325 321 346 349 346 336 327 327 324 335 309 309 328 323 319 248 243 254 260 262 277 251 204 195 210 203 193 214 199 193 213 208 205 203 203 207 203 199 209 217 201 165 173
343 332 323 319 330 340 349 339 339 340 339 314 306 314 310 302 294 258 216 245 258 273 254 223 165 186 146 182 190 206 190 200 202 197 202 198 185 194 201 192 201 208 212 214 218
339 334 320 315 326 340 342 340 332 346 347 340 329 310 308 310 262 242 251 237 256 255 240 183 138 142 142 152 167 197 162 168 168 186 202 192 204 208 197 201 205 191 199 204 209